When you browse on this site, cookies collect data to enhance your experience and personalize the content and advertising you see.
Visit our Privacy Policy to learn more. By continuing to use the site, you agree to this use of cookies and data.
  • In Hungary
  • List of Countries
  • For 7 days
  • Water Temperature
  • Weather Map
  • News
  • Weather Widgets
  • user-avatar
    Login

    Hourly Weather Volohovskie Vyselki

    Today, 20 January, Monday

    Time Temperature Precipitation Wind Pressure Humidity
    00:00 -2°C° 0 mm 3 mps 761 mmHg 94%
    01:00 -3°C° 0 mm 4 mps 761 mmHg 93%
    02:00 -3°C° 0 mm 4 mps 761 mmHg 93%
    03:00 -3°C° 0 mm 4 mps 761 mmHg 93%
    04:00 -3°C° 0 mm 4 mps 761 mmHg 93%
    05:00 -3°C° 0 mm 4 mps 761 mmHg 92%
    06:00 -3°C° 0 mm 4 mps 760 mmHg 92%
    07:00 -3°C° 0 mm 4 mps 760 mmHg 92%
    08:00 -4°C° 0 mm 5 mps 760 mmHg 92%
    09:00 -4°C° 0 mm 5 mps 760 mmHg 92%
    10:00 -2°C° 0 mm 5 mps 760 mmHg 91%
    11:00 -2°C° 0 mm 5 mps 760 mmHg 91%
    12:00 -1°C° 0 mm 5 mps 759 mmHg 91%
    13:00 -1°C° 0 mm 5 mps 759 mmHg 90%
    14:00 -2°C° 0 mm 6 mps 759 mmHg 90%
    15:00 -2°C° 0 mm 6 mps 759 mmHg 90%
    16:00 -2°C° 0 mm 6 mps 759 mmHg 91%
    17:00 -1°C° 0 mm 5 mps 759 mmHg 91%
    18:00 -2°C° 0 mm 5 mps 758 mmHg 92%
    19:00 -2°C° 0 mm 5 mps 758 mmHg 93%
    20:00 -1°C° 0 mm 5 mps 758 mmHg 94%
    21:00 -1°C° 0 mm 5 mps 758 mmHg 95%
    22:00 -1°C° 0 mm 5 mps 757 mmHg 94%
    23:00 -1°C° 0 mm 5 mps 757 mmHg 94%

    Tomorrow, 21 January, Tuesday

    Time Temperature Precipitation Wind Pressure Humidity
    00:00 -1°C° 0 mm 5 mps 756 mmHg 94%
    01:00 -2°C° 0.1 mm 6 mps 756 mmHg 94%
    02:00 -3°C° 0.1 mm 6 mps 756 mmHg 94%
    03:00 -3°C° 0.1 mm 6 mps 755 mmHg 95%
    04:00 -3°C° 0 mm 6 mps 755 mmHg 93%
    05:00 -4°C° 0 mm 6 mps 754 mmHg 91%
    06:00 -4°C° 0 mm 5 mps 753 mmHg 89%
    07:00 -4°C° 0.2 mm 6 mps 753 mmHg 92%
    08:00 -4°C° 0.2 mm 6 mps 752 mmHg 94%
    09:00 -4°C° 0.2 mm 6 mps 752 mmHg 96%
    10:00 -4°C° 0.4 mm 7 mps 751 mmHg 95%
    11:00 -3°C° 0.4 mm 7 mps 750 mmHg 94%
    12:00 -4°C° 0.4 mm 8 mps 749 mmHg 94%
    13:00 -4°C° 0.3 mm 8 mps 749 mmHg 94%
    14:00 -2°C° 0.3 mm 7 mps 748 mmHg 95%
    15:00 -1°C° 0.3 mm 7 mps 748 mmHg 95%
    16:00 -1°C° 0 mm 7 mps 747 mmHg 96%
    17:00 -1°C° 0 mm 7 mps 746 mmHg 96%
    18:00 -1°C° 0 mm 6 mps 746 mmHg 96%
    19:00 -1°C° 0.2 mm 6 mps 745 mmHg 97%
    20:00 -1°C° 0.2 mm 6 mps 744 mmHg 97%
    21:00 +1°C° 0.2 mm 6 mps 744 mmHg 97%
    22:00 0°C° 0.6 mm 7 mps 743 mmHg 97%
    23:00 0°C° 0.6 mm 7 mps 742 mmHg 96%

    Day after tomorrow, 22 January, Wednesday

    Time Temperature Precipitation Wind Pressure Humidity
    00:00 0°C° 0.6 mm 8 mps 741 mmHg 96%
    01:00 0°C° 0.1 mm 8 mps 741 mmHg 94%
    02:00 +1°C° 0.1 mm 8 mps 741 mmHg 93%
    03:00 +1°C° 0.1 mm 8 mps 741 mmHg 92%
    04:00 0°C° 0.1 mm 7 mps 741 mmHg 90%
    05:00 -1°C° 0.1 mm 7 mps 741 mmHg 89%
    06:00 -2°C° 0.1 mm 6 mps 741 mmHg 87%
    07:00 -2°C° 0.1 mm 6 mps 741 mmHg 85%
    08:00 -3°C° 0.1 mm 6 mps 741 mmHg 84%
    09:00 -2°C° 0.1 mm 5 mps 741 mmHg 82%
    10:00 -3°C° 0 mm 6 mps 741 mmHg 81%
    11:00 -3°C° 0 mm 6 mps 741 mmHg 79%
    12:00 -3°C° 0 mm 6 mps 741 mmHg 78%
    13:00 -3°C° 0 mm 6 mps 741 mmHg 78%
    14:00 -2°C° 0 mm 5 mps 740 mmHg 78%
    15:00 -2°C° 0 mm 5 mps 740 mmHg 79%
    16:00 -2°C° 0.1 mm 5 mps 739 mmHg 82%
    17:00 -3°C° 0.1 mm 4 mps 739 mmHg 85%
    18:00 -3°C° 0.1 mm 4 mps 739 mmHg 88%
    19:00 -3°C° 0 mm 4 mps 739 mmHg 87%
    20:00 -3°C° 0 mm 4 mps 739 mmHg 86%
    21:00 -3°C° 0 mm 4 mps 739 mmHg 85%
    22:00 -3°C° 0.1 mm 4 mps 739 mmHg 86%
    23:00 -4°C° 0.1 mm 4 mps 739 mmHg 87%

    23 January, Thursday

    Time Temperature Precipitation Wind Pressure Humidity
    00:00 -4°C° 0.1 mm 4 mps 740 mmHg 87%
    01:00 -4°C° 0 mm 4 mps 740 mmHg 87%
    02:00 -4°C° 0 mm 4 mps 740 mmHg 86%
    03:00 -6°C° 0 mm 5 mps 740 mmHg 85%
    04:00 -6°C° 0 mm 5 mps 741 mmHg 85%
    05:00 -6°C° 0 mm 5 mps 741 mmHg 84%
    06:00 -6°C° 0 mm 5 mps 741 mmHg 84%
    07:00 -6°C° 0.1 mm 5 mps 742 mmHg 83%
    08:00 -6°C° 0.1 mm 6 mps 742 mmHg 81%
    09:00 -6°C° 0.1 mm 6 mps 742 mmHg 80%
    10:00 -7°C° 0 mm 7 mps 743 mmHg 77%
    11:00 -8°C° 0 mm 7 mps 744 mmHg 74%
    12:00 -8°C° 0 mm 7 mps 744 mmHg 71%
    13:00 -8°C° 0 mm 7 mps 745 mmHg 69%
    14:00 -9°C° 0 mm 7 mps 745 mmHg 66%
    15:00 -10°C° 0 mm 8 mps 746 mmHg 64%
    16:00 -9°C° 0 mm 6 mps 746 mmHg 68%
    17:00 -8°C° 0 mm 5 mps 747 mmHg 73%
    18:00 -9°C° 0 mm 4 mps 747 mmHg 77%
    19:00 -9°C° 0 mm 4 mps 748 mmHg 77%
    20:00 -9°C° 0 mm 4 mps 748 mmHg 77%
    21:00 -9°C° 0 mm 4 mps 749 mmHg 76%
    22:00 -9°C° 0 mm 4 mps 749 mmHg 77%
    23:00 -9°C° 0 mm 4 mps 750 mmHg 77%

    24 January, Friday

    Time Temperature Precipitation Wind Pressure Humidity
    00:00 -8°C° 0 mm 3 mps 751 mmHg 78%
    01:00 -10°C° 0 mm 4 mps 751 mmHg 78%
    02:00 -10°C° 0 mm 4 mps 751 mmHg 78%
    03:00 -10°C° 0 mm 4 mps 752 mmHg 78%
    04:00 -10°C° 0 mm 4 mps 751 mmHg 80%
    05:00 -10°C° 0 mm 4 mps 751 mmHg 81%
    06:00 -9°C° 0 mm 3 mps 751 mmHg 83%
    07:00 -9°C° 0 mm 4 mps 750 mmHg 83%
    08:00 -9°C° 0 mm 4 mps 750 mmHg 84%
    09:00 -10°C° 0 mm 5 mps 749 mmHg 84%
    10:00 -8°C° 0.1 mm 5 mps 749 mmHg 87%
    11:00 -8°C° 0.1 mm 6 mps 748 mmHg 90%
    12:00 -8°C° 0.1 mm 7 mps 747 mmHg 92%
    13:00 -7°C° 0.3 mm 7 mps 746 mmHg 93%
    14:00 -7°C° 0.3 mm 7 mps 745 mmHg 93%
    15:00 -6°C° 0.3 mm 7 mps 744 mmHg 93%
    16:00 -6°C° 0.2 mm 7 mps 744 mmHg 94%
    17:00 -4°C° 0.2 mm 7 mps 743 mmHg 95%
    18:00 -4°C° 0.2 mm 6 mps 743 mmHg 95%
    19:00 -3°C° 0.4 mm 6 mps 743 mmHg 94%
    20:00 -2°C° 0.4 mm 6 mps 743 mmHg 93%
    21:00 -1°C° 0.4 mm 7 mps 743 mmHg 91%
    22:00 -2°C° 0 mm 6 mps 743 mmHg 89%
    23:00 -3°C° 0 mm 6 mps 744 mmHg 86%

    25 January, Saturday

    Time Temperature Precipitation Wind Pressure Humidity
    00:00 -4°C° 0 mm 6 mps 744 mmHg 83%
    01:00 -4°C° 0 mm 6 mps 744 mmHg 83%
    02:00 -5°C° 0 mm 6 mps 745 mmHg 83%
    03:00 -5°C° 0 mm 5 mps 745 mmHg 83%
    04:00 -5°C° 0 mm 5 mps 746 mmHg 83%
    05:00 -5°C° 0 mm 5 mps 746 mmHg 83%
    06:00 -5°C° 0 mm 5 mps 746 mmHg 82%
    07:00 -5°C° 0 mm 5 mps 747 mmHg 83%
    08:00 -5°C° 0 mm 5 mps 747 mmHg 83%
    09:00 -5°C° 0 mm 5 mps 747 mmHg 83%
    10:00 -4°C° 0 mm 4 mps 748 mmHg 84%
    11:00 -3°C° 0 mm 4 mps 748 mmHg 84%
    12:00 -3°C° 0 mm 4 mps 749 mmHg 84%
    13:00 -2°C° 0 mm 4 mps 749 mmHg 86%
    14:00 -2°C° 0 mm 4 mps 749 mmHg 88%
    15:00 -2°C° 0 mm 4 mps 749 mmHg 90%
    16:00 -2°C° 0 mm 4 mps 749 mmHg 90%
    17:00 -2°C° 0 mm 4 mps 749 mmHg 91%
    18:00 -2°C° 0 mm 4 mps 750 mmHg 91%
    19:00 -2°C° 0 mm 4 mps 750 mmHg 92%
    20:00 -2°C° 0 mm 4 mps 750 mmHg 93%
    21:00 -1°C° 0 mm 4 mps 750 mmHg 94%
    22:00 -1°C° 0 mm 4 mps 750 mmHg 94%
    23:00 -1°C° 0 mm 4 mps 750 mmHg 94%
    Show more